星链-37005(STARLINK-37005)

导读

STARLINK-37005(NORAD编号68107)是SpaceX星链星座中的一颗低轨通信卫星,隶属于星链第二代组网批次。星链星座整体规划近1.2万颗卫星,该卫星运行在约550公里的近地轨道,采用Ku/Ka频段通信搭配星间激光链路,支持全球宽带接入服务。 它继承了星链卫星的标准化设计,配备氪离子推进系统与自主碰撞规避功能,单星质量约227-260kg,设计寿命5年。作为星链万颗在轨卫星集群的一员,为全球偏远地区、移动场景提供低延迟宽带服务,支撑星链“星链移动”手机直连业务的网络覆盖。

基本信息
目录编号:
68107
目录名称:
STARLINK-37005
国际标识:
2026-044G
轨道中心:
EARTH
卫星名称:
星链-37005
卫星全名:
星链-37005(STARLINK-37005)
卫星状态:
在轨 (已飞行142 天)
发射日期:
2026-03-08 UTC
国别 :
美国 (US)
星等 :
--
轨道信息
数据来源 国际轨道数据
星历时间: 2026-07-27T22:51:50+0800
11小时前
查看轨道信息
半长轴: 6843.694km
偏心率: 0.0000633
轨道倾角: 97.283°
近地点辐角 119.829°
升交点赤经 168.289°
平近点角 240.301°
近地点: 465.123km
远地点: 465.991km
周期: 93.906分钟
每日圈数: 15.334404
详细信息
固有亮度:
5
最大亮度:
2.5
卫星平台:
Starlink V1.0
覆盖范围:
全球
运营商:
太空探索技术公司
运营商所在国:
美国
制造商(研发单位):
太空探索技术公司
制造商所在国:
美国
使用方式:
暂无
卫星简介
Starlink 计划是 SpaceX 推出的全球卫星互联网项目,通过发射低轨道卫星,为全球尤其是偏远地区提供高速、低延迟的互联网服务。自 2019 年起,Starlink 已部署数千颗卫星,旨在缩小全球数字鸿沟,推动互联网普及。该项目还为军事、航空等行业提供通信支持,带来广泛经济效益。
2D轨道图
3D轨道图
轨道高度分析图
轨道倾角分析图
轨道综合分析图
查看轨道综合分析图